Location: Kellogg
(38.0159°N, 90.0546°W)
Time: 20:35:35
(UTC+00:00)

Courier 1B - Visible Passes

Search period start: 22 January 2026 00:00
Search period end: 01 February 2026 00:00
Orbit: 962 x 1208 km, 28.3° (Epoch: 21 January)

Date Brightness Start Highest point End Pass type
(mag) Time Alt. Az. Time Alt. Az. Time Alt. Az.
22 Jan 9.4 12:04:55 10° SW 12:10:03 24° SSE 12:15:06 10° ESE visible
23 Jan 9.5 11:11:41 10° SSW 11:16:24 20° SSE 11:21:00 10° ESE visible
24 Jan 9.5 10:21:01 15° S 10:22:45 17° SSE 10:26:44 10° ESE visible
24 Jan 9.0 12:10:16 10° SW 12:15:58 31° S 12:21:32 10° ESE visible
25 Jan 10.0 09:30:50 12° SE 09:30:50 12° SE 09:32:02 10° SE visible
25 Jan 9.0 11:17:45 14° SW 11:22:17 28° SSE 11:27:41 10° ESE visible
26 Jan 9.1 10:27:28 23° S 10:28:35 24° SSE 10:33:45 10° ESE visible
26 Jan 8.7 12:15:58 10° WSW 12:21:55 35° S 12:27:44 10° ESE visible
27 Jan 9.7 09:37:09 18° SE 09:37:09 18° SE 09:39:42 10° ESE visible
27 Jan 8.7 11:24:02 18° SW 11:28:13 34° S 11:34:01 10° ESE visible
28 Jan 8.7 10:33:38 30° S 10:34:30 31° S 10:40:14 10° ESE visible
28 Jan 8.7 12:21:53 10° WSW 12:27:55 35° S 12:33:44 10° ESE visible
29 Jan 9.4 09:43:11 23° SE 09:43:11 23° SE 09:46:24 10° ESE visible
29 Jan 8.6 11:30:05 19° SW 11:34:11 36° S 11:40:08 10° ESE visible
30 Jan 8.5 10:39:35 35° SSW 10:40:27 36° S 10:46:28 10° ESE visible
30 Jan 8.8 12:27:59 10° WSW 12:33:52 32° S 12:39:32 10° SE visible
31 Jan 9.1 09:49:05 27° SE 09:49:05 27° SE 09:52:45 10° ESE visible
31 Jan 8.6 11:35:58 18° WSW 11:40:09 35° S 11:46:04 10° ESE visible
